カタログに戻る

STARLINK-34534

運用中通信VLEO
NORAD 64763·PAYLOAD·🇺🇸 United States

打ち上げ Jul 8, 2025 から Cape Canaveral Space Force Station

Loading…

次のパス (今後24時間)

TLE

最新Source: CelesTrak SupGP

元期: Sep 14, 2026, 22:39 UTC

1 64763C 25147J   26257.94423611  .00035263  00000+0  10421-2 0  2572
2 64763  53.1580  79.8004 0001260  84.0060 226.6059 15.34364935    19

AllMySatでSTARLINK-34534をリアルタイム追跡

Download on the App Store